[[{"header":{"parameterUnit":"m.s-1","parameterCategory":1,"la1":30.2991,"la2":30.254,"lo1":-89.0895,"lo2":-89.0444,"dy":0.0017,"dx":0.0017,"nx":28,"ny":28,"refTime":"2025-03-31T03:00:00:Z","depth":0,"parameterNumber":2,"parameterNumberName":"U-component_of_WINDS"},"data":[0,0,0,0,0,0,0,0,0,0,0,0,0,0,0,0,0,0,0,0,0,0,0,0,0,0,0,0,0,0,0,0,0,0,0,0,0,0,0,0,0,0,0,0,0,0,0,0,0,0,0,0,0,0,0,0,0,0,-0.9302,-0.9302,0,-0.9239,-0.9238,-0.9237,-0.921,-0.921,-0.921,-0.921,-0.9146,-0.9144,-0.9142,0,0,0,0,0,0,0,0,0,0,0,0,0,-0.9401,-0.9399,-0.9302,-0.9301,-0.9301,-0.9239,-0.9238,-0.9237,-0.921,-0.921,-0.921,-0.921,-0.9147,-0.9144,-0.9142,0,0,0,0,0,0,0,0,0,0,0,0,0,-0.935,-0.9399,-0.9302,-0.928,-0.9277,-0.9239,-0.9238,-0.9237,-0.921,-0.921,-0.921,-0.921,-0.9147,-0.9145,-0.9142,-0.9122,0,0,-0.9134,-0.9132,0,0,0,0,0,0,0,0,-0.9353,-0.9346,-0.9284,-0.9281,-0.9278,-0.9232,-0.9249,-0.9198,-0.921,-0.9235,-0.921,-0.9211,-0.9175,-0.917,-0.9157,-0.9119,-0.9116,-0.9133,-0.9132,-0.9131,-0.913,0,0,0,0,0,0,0,-0.9356,-0.9349,-0.9277,-0.9283,-0.9279,-0.9273,-0.9266,-0.9239,-0.9205,-0.9233,-0.9231,-0.9224,-0.9173,-0.916,-0.9156,-0.9115,-0.9133,-0.9131,-0.9129,-0.9128,-0.9058,-0.9057,0,0,0,0,0,0,-0.9364,-0.9352,-0.9279,-0.9275,-0.9317,-0.9271,-0.9263,-0.9247,-0.9205,-0.9199,-0.9224,-0.9223,-0.9165,-0.9159,-0.9153,-0.9127,-0.9131,-0.9128,-0.9126,-0.9058,-0.9057,-0.9057,0,0,0,0,0,0,-0.9366,-0.9357,-0.9282,-0.9313,-0.9303,-0.9269,-0.9251,-0.9246,-0.9233,-0.9198,-0.9192,-0.9217,-0.9165,-0.9157,-0.913,-0.9125,-0.9127,-0.9124,-0.9058,-0.9058,-0.9057,-0.9075,0,0,0,0,0,0,-0.9369,-0.9358,-0.935,-0.9313,-0.9301,-0.9259,-0.9251,-0.9244,-0.9228,-0.9226,-0.919,-0.9184,-0.9164,-0.9134,-0.9127,-0.9121,-0.9122,-0.9058,-0.9058,-0.9057,-0.9074,-0.9075,-0.9075,0,0,0,0,0,-0.9372,-0.9358,-0.935,-0.9341,-0.929,-0.9259,-0.9252,-0.9229,-0.9228,-0.9219,-0.9197,-0.9185,-0.9127,-0.9132,-0.9124,-0.9116,-0.9059,-0.9058,-0.9057,-0.9074,-0.9075,-0.9075,0,0,0,0,0,0,-0.9395,-0.9352,-0.9343,-0.9316,-0.9291,-0.9254,-0.9243,-0.9231,-0.9206,-0.9206,-0.9179,-0.9171,-0.9146,-0.9128,-0.9135,-0.9095,-0.9092,-0.9089,-0.9107,-0.9107,-0.9108,-0.9112,-0.912,0,0,0,0,0,-0.9397,-0.9374,-0.9339,-0.9318,-0.9306,-0.9277,-0.9262,-0.9247,-0.922,-0.921,-0.9186,-0.9161,-0.9136,-0.9121,-0.9097,-0.9072,-0.9064,-0.9063,-0.9064,-0.9064,-0.9063,-0.9048,-0.9048,-0.9055,-0.9055,-0.9055,0,0,-0.94,-0.9374,-0.9362,-0.9322,-0.9301,-0.9279,-0.9268,-0.9245,-0.9228,-0.9206,-0.9179,-0.9161,-0.9131,-0.9105,-0.9092,-0.909,-0.9059,-0.9064,-0.9064,-0.9062,-0.9048,-0.9047,-0.9046,-0.9055,-0.9055,-0.9055,0,0,-0.9395,-0.9373,-0.9353,-0.9333,-0.9301,-0.9282,-0.9277,-0.9242,-0.9229,-0.9202,-0.9185,-0.9165,-0.9124,-0.9103,-0.9087,-0.9075,-0.9063,-0.9068,-0.9071,-0.9057,-0.9056,-0.9056,-0.9051,-0.905,-0.9067,-0.9067,-0.9067,0,-0.9403,-0.9368,-0.9345,-0.9323,-0.9306,-0.9285,-0.9265,-0.9246,-0.9209,-0.9198,-0.9195,-0.9144,-0.9122,-0.9091,-0.9088,-0.9076,-0.907,-0.9072,-0.9058,-0.9058,-0.9057,-0.9052,-0.905,-0.9068,-0.9068,-0.9068,-0.9068,0,-0.938,-0.9357,-0.9345,-0.9309,-0.9291,-0.927,-0.9243,-0.9228,-0.9215,-0.9196,-0.9168,-0.9142,-0.9112,-0.9104,-0.909,-0.9071,-0.907,-0.9064,-0.9059,-0.9057,-0.9052,-0.905,-0.9069,-0.9069,-0.9068,-0.9068,0,0,-0.9386,-0.9338,-0.9334,-0.9317,-0.9281,-0.9263,-0.9242,-0.9212,-0.92,-0.9175,-0.9156,-0.9122,-0.9116,-0.9098,-0.9083,-0.9071,-0.9063,-0.9066,-0.9065,-0.9066,-0.904,-0.9045,-0.9043,-0.9055,-0.9055,-0.9055,-0.9042,0,-0.9376,-0.9336,-0.9314,-0.9283,-0.9262,-0.9242,-0.9223,-0.92,-0.9182,-0.9161,-0.9141,-0.9118,-0.9111,-0.9101,-0.9088,-0.9067,-0.9057,-0.9067,-0.9038,-0.9037,-0.9045,-0.904,-0.9045,-0.9035,-0.904,-0.904,-0.904,0,-0.9358,-0.9333,-0.93,-0.9267,-0.9257,-0.924,-0.9212,-0.9192,-0.9165,-0.9153,-0.9134,-0.9119,-0.9096,-0.9094,-0.9062,-0.907,-0.9056,-0.9044,-0.9043,-0.9039,-0.9038,-0.9036,-0.9031,-0.9029,-0.9037,-0.9037,-0.9037,0,-0.9365,-0.9323,-0.9298,-0.9285,-0.9246,-0.9235,-0.9218,-0.9191,-0.9175,-0.9151,-0.914,-0.9114,-0.9099,-0.9079,-0.9057,-0.9058,-0.9028,-0.9024,-0.9017,-0.9017,-0.901,-0.9011,-0.9003,-0.9003,-0.9003,-0.9003,-0.9003,0,-0.9355,-0.9335,-0.9301,-0.9285,-0.9263,-0.9239,-0.9218,-0.92,-0.9176,-0.9157,-0.9139,-0.9122,-0.9094,-0.9074,-0.9057,-0.9033,-0.9027,-0.9016,-0.9012,-0.9017,-0.9019,-0.9008,-0.9008,-0.9003,-0.9003,-0.9003,-0.9003,0,-0.9359,-0.9335,-0.9306,-0.9272,-0.9263,-0.9248,-0.9218,-0.9203,-0.9185,-0.9161,-0.9154,-0.9125,-0.91,-0.9076,-0.9043,-0.9032,-0.9007,-0.9002,-0.9016,-0.9014,-0.9008,-0.9008,-0.8992,-0.8988,-0.8992,-0.8992,-0.8992,0,-0.9353,-0.9338,-0.9302,-0.9288,-0.9271,-0.9249,-0.9232,-0.9209,-0.9192,-0.9161,-0.9149,-0.9123,-0.91,-0.9061,-0.9037,-0.9012,-0.9005,-0.9001,-0.9001,-0.9007,-0.9005,-0.9005,-0.9004,-0.9001,-0.9001,-0.9001,-0.9002,0,-0.9346,-0.9336,-0.9312,-0.9285,-0.9266,-0.9244,-0.9221,-0.9211,-0.9183,-0.9166,-0.9139,-0.9122,-0.9088,-0.9062,-0.9034,-0.9017,-0.9005,-0.9002,-0.8999,-0.9004,-0.9013,-0.9007,-0.9017,-0.9002,-0.9002,-0.9002,-0.9002,-0.9002,-0.9345,-0.933,-0.9303,-0.9278,-0.9258,-0.9237,-0.9221,-0.9201,-0.9179,-0.9149,-0.9137,-0.911,-0.9084,-0.9045,-0.9029,-0.9008,-0.9005,-0.9001,-0.8999,-0.8999,-0.8999,-0.9017,-0.9003,-0.9003,-0.9003,-0.9003,-0.9003,0,-0.9337,-0.9318,-0.9296,-0.9264,-0.9245,-0.9235,-0.9209,-0.9194,-0.9171,-0.9147,-0.9126,-0.9096,-0.9071,-0.9046,-0.9019,-0.9008,-0.9001,-0.9001,-0.9002,-0.8998,-0.9004,-0.9009,-0.9007,-0.9007,-0.9007,-0.9007,-0.9007,-0.9007,-0.933,-0.9305,-0.9291,-0.9256,-0.9238,-0.9211,-0.9198,-0.9179,-0.916,-0.9127,-0.9106,-0.909,-0.9066,-0.9038,-0.9015,-0.9008,-0.8999,-0.9001,-0.8992,-0.8998,-0.8998,-0.8997,-0.9002,-0.8999,-0.8999,-0.8988,-0.8988,-0.8988]},{"header":{"parameterUnit":"m.s-1","parameterCategory":1,"la1":30.2991,"la2":30.254,"lo1":-89.0895,"lo2":-89.0444,"dy":0.0017,"dx":0.0017,"nx":28,"ny":28,"refTime":"2025-03-31T03:00:00:Z","depth":0,"parameterNumber":3,"parameterNumberName":"V-component_of_WINDS"},"data":[0,0,0,0,0,0,0,0,0,0,0,0,0,0,0,0,0,0,0,0,0,0,0,0,0,0,0,0,0,0,0,0,0,0,0,0,0,0,0,0,0,0,0,0,0,0,0,0,0,0,0,0,0,0,0,0,0,0,1.2611,1.2611,0,1.2656,1.2657,1.2657,1.2647,1.2647,1.2646,1.2645,1.269,1.2692,1.2694,0,0,0,0,0,0,0,0,0,0,0,0,0,1.2514,1.2516,1.2611,1.2611,1.2612,1.2656,1.2657,1.2657,1.2648,1.2647,1.2646,1.2645,1.2689,1.2691,1.2694,0,0,0,0,0,0,0,0,0,0,0,0,0,1.2557,1.2516,1.2611,1.2612,1.2613,1.2656,1.2657,1.2657,1.2648,1.2647,1.2645,1.2644,1.2688,1.2691,1.2694,1.2737,0,0,1.2703,1.2704,0,0,0,0,0,0,0,0,1.2555,1.2561,1.2612,1.2612,1.2613,1.2645,1.2639,1.2684,1.2648,1.2635,1.2645,1.2644,1.2676,1.268,1.2691,1.2739,1.2741,1.2703,1.2705,1.2706,1.2707,0,0,0,0,0,0,0,1.2552,1.2559,1.2628,1.2612,1.2613,1.261,1.2615,1.2647,1.2661,1.2636,1.2635,1.2641,1.2676,1.2688,1.2692,1.2742,1.2703,1.2706,1.2708,1.2709,1.2829,1.283,0,0,0,0,0,0,1.2548,1.2556,1.2627,1.263,1.258,1.2613,1.2618,1.2636,1.2661,1.2664,1.2642,1.264,1.2684,1.2688,1.2693,1.2747,1.2706,1.2709,1.2711,1.2828,1.2829,1.2831,0,0,0,0,0,0,1.2546,1.2555,1.2625,1.2593,1.2602,1.2616,1.2636,1.2637,1.265,1.2666,1.2668,1.2652,1.2683,1.2689,1.2727,1.2748,1.271,1.2713,1.2826,1.2828,1.283,1.2853,0,0,0,0,0,0,1.2543,1.2554,1.2571,1.2593,1.2603,1.2659,1.2637,1.2639,1.2655,1.2653,1.2676,1.2678,1.2682,1.2722,1.273,1.2752,1.2715,1.2824,1.2827,1.283,1.2851,1.2856,1.2861,0,0,0,0,0,1.254,1.2575,1.2572,1.2581,1.2625,1.266,1.2666,1.267,1.2657,1.2674,1.2684,1.2677,1.2744,1.2726,1.2734,1.2758,1.2823,1.2826,1.2829,1.2849,1.2855,1.2861,0,0,0,0,0,0,1.2554,1.2578,1.2575,1.2618,1.2637,1.2658,1.268,1.2677,1.2699,1.2697,1.27,1.2705,1.2744,1.2754,1.2734,1.2801,1.2782,1.2787,1.2794,1.28,1.2805,1.2802,1.2718,0,0,0,0,0,1.2562,1.2589,1.2608,1.2645,1.2654,1.2666,1.2681,1.2683,1.2702,1.271,1.2723,1.2742,1.2767,1.2783,1.2807,1.2851,1.2857,1.2871,1.2876,1.288,1.2885,1.291,1.2917,1.2842,1.2841,1.2841,0,0,1.258,1.2596,1.2613,1.2648,1.2663,1.2691,1.2672,1.2702,1.2722,1.2714,1.2751,1.2761,1.2782,1.2824,1.2843,1.2833,1.2907,1.2884,1.2887,1.289,1.2914,1.2921,1.2928,1.2844,1.2843,1.2843,0,0,1.2626,1.264,1.2673,1.2688,1.2711,1.2719,1.2726,1.2748,1.2755,1.2792,1.2787,1.281,1.2853,1.2869,1.2883,1.2934,1.293,1.2942,1.2968,1.2992,1.2998,1.3004,1.3024,1.3031,1.2946,1.2946,1.2946,0,1.2644,1.2686,1.269,1.2721,1.2737,1.2731,1.2764,1.2778,1.2808,1.2819,1.2808,1.2863,1.2876,1.2922,1.2934,1.2945,1.2954,1.294,1.2997,1.3003,1.3008,1.3027,1.3034,1.2948,1.2947,1.2947,1.2947,0,1.2708,1.2737,1.2761,1.2791,1.2809,1.2841,1.2849,1.2867,1.2867,1.2875,1.2913,1.2929,1.2957,1.2967,1.2967,1.3013,1.3007,1.2996,1.2977,1.3016,1.3035,1.3042,1.295,1.2949,1.2949,1.2948,0,0,1.2766,1.2798,1.2806,1.282,1.2845,1.2868,1.2898,1.2926,1.2942,1.2962,1.2989,1.3025,1.3016,1.3032,1.3033,1.3054,1.3096,1.3041,1.3042,1.3052,1.3149,1.3158,1.3166,1.3092,1.3093,1.3094,1.3148,0,1.2816,1.2872,1.2877,1.2927,1.2955,1.2949,1.2976,1.2994,1.3002,1.3026,1.3034,1.3061,1.3046,1.3056,1.3076,1.3086,1.3115,1.3082,1.3117,1.3118,1.3114,1.3176,1.3185,1.3235,1.3154,1.3156,1.3157,0,1.2882,1.2905,1.2959,1.2981,1.2993,1.3017,1.3044,1.3066,1.3086,1.309,1.3108,1.3106,1.3138,1.3116,1.316,1.3137,1.3151,1.3158,1.316,1.3165,1.3141,1.3184,1.3251,1.3259,1.3167,1.3166,1.3166,0,1.2921,1.2965,1.3004,1.3016,1.3041,1.3059,1.307,1.3089,1.3106,1.3128,1.3139,1.3164,1.3178,1.3198,1.3203,1.3186,1.3247,1.3225,1.3252,1.3252,1.3267,1.3267,1.3339,1.3273,1.3273,1.3272,1.3272,0,1.2977,1.3011,1.3022,1.3046,1.3083,1.3087,1.3124,1.3134,1.3151,1.3176,1.3171,1.3195,1.3199,1.3224,1.3227,1.3264,1.327,1.3275,1.3276,1.3277,1.3276,1.3287,1.3285,1.3274,1.3274,1.3274,1.3273,0,1.3028,1.3037,1.3079,1.31,1.3106,1.3133,1.3151,1.3173,1.318,1.3213,1.322,1.3232,1.326,1.3267,1.33,1.3303,1.3347,1.3343,1.3341,1.3341,1.3368,1.3366,1.3453,1.3465,1.3388,1.3389,1.3389,0,1.3065,1.3091,1.3115,1.3133,1.3145,1.3173,1.319,1.3194,1.3212,1.3237,1.3257,1.3285,1.3308,1.3354,1.3365,1.339,1.3389,1.3417,1.3393,1.3393,1.3391,1.3391,1.3394,1.3422,1.3423,1.3424,1.3424,0,1.313,1.3133,1.3159,1.3186,1.3207,1.3229,1.3249,1.3263,1.327,1.329,1.332,1.3338,1.3372,1.3401,1.3426,1.3437,1.3433,1.3432,1.344,1.3442,1.344,1.3443,1.3356,1.343,1.343,1.3429,1.3429,1.3429,1.3176,1.32,1.3221,1.325,1.3266,1.3285,1.3308,1.3318,1.3343,1.3373,1.3373,1.3406,1.3424,1.3459,1.3471,1.3496,1.3488,1.3499,1.3502,1.3505,1.3509,1.3434,1.3501,1.3501,1.35,1.35,1.35,0,1.3243,1.3256,1.3283,1.3312,1.3335,1.3328,1.335,1.3369,1.3399,1.3417,1.344,1.3474,1.3502,1.3514,1.3541,1.3559,1.3558,1.3566,1.3566,1.3569,1.3514,1.3506,1.3567,1.3567,1.3567,1.3567,1.3567,1.3567,1.3281,1.332,1.3326,1.3373,1.3386,1.3419,1.3432,1.345,1.3465,1.3504,1.3527,1.3535,1.3551,1.3579,1.3604,1.3607,1.3618,1.3628,1.363,1.3579,1.3573,1.3566,1.3558,1.363,1.363,1.3683,1.3684,1.3684]}]]